This is the latest recevied weather packets stored in our database for station/object K5BOU. If no packets are shown the sender has not sent any weather packets the latest 10 day(s).
| Time | Temp. | Humidity | Pressure | Rain* | Wind** | Luminosity | Snow |
|---|---|---|---|---|---|---|---|
| 1777166549 | 26.11° C | 90% | 1003.9 hPa | 0 mm | - | 0 W/m² | - |
| 1777166245 | 26.67° C | 90% | 1004 hPa | 0 mm | - | 0 W/m² | - |
| 1777165942 | 26.67° C | 89% | 1004.1 hPa | 0 mm | - | 0 W/m² | - |
| 1777165641 | 26.67° C | 89% | 1003.8 hPa | 0 mm | - | 0 W/m² | - |
| 1777165337 | 26.67° C | 89% | 1003.9 hPa | 0 mm | - | 0 W/m² | - |
| 1777165033 | 26.67° C | 88% | 1003.8 hPa | 0 mm | - | 0 W/m² | - |
| 1777164732 | 27.22° C | 88% | 1003.8 hPa | 0 mm | - | 2 W/m² | - |
| 1777164431 | 27.22° C | 88% | 1003.7 hPa | 0 mm | - | 5 W/m² | - |
| 1777164125 | 27.22° C | 88% | 1003.8 hPa | 0 mm | - | 9 W/m² | - |
| 1777163825 | 27.22° C | 87% | 1004.2 hPa | 0 mm | - | 14 W/m² | - |
| 1777163521 | 27.78° C | 87% | 1004 hPa | 0 mm | - | 19 W/m² | - |
| 1777163216 | 27.78° C | 86% | 1004 hPa | 0 mm | - | 25 W/m² | - |
| 1777162912 | 27.78° C | 86% | 1003.9 hPa | 0 mm | - | 29 W/m² | - |
| 1777162607 | 27.78° C | 86% | 1003.9 hPa | 0 mm | - | 35 W/m² | - |
| 1777162301 | 27.78° C | 86% | 1003.8 hPa | 0 mm | - | 41 W/m² | - |
| 1777161997 | 28.33° C | 85% | 1004 hPa | 0 mm | - | 48 W/m² | - |
| 1777161692 | 28.33° C | 84% | 1004.1 hPa | 0 mm | - | 58 W/m² | - |
| 1777161389 | 28.33° C | 84% | 1004 hPa | 0 mm | - | 66 W/m² | - |
| 1777161086 | 28.89° C | 84% | 1004.3 hPa | 0 mm | - | 71 W/m² | - |
| 1777160781 | 28.89° C | 83% | 1004.1 hPa | 0 mm | - | 77 W/m² | - |
| 1777160476 | 28.89° C | 82% | 1004.1 hPa | 0 mm | - | 92 W/m² | - |
| 1777160173 | 28.89° C | 82% | 1004.1 hPa | 0 mm | - | 109 W/m² | - |
| 1777159868 | 29.44° C | 82% | 1003.9 hPa | 0 mm | - | 118 W/m² | - |
| 1777159565 | 29.44° C | 81% | 1004.1 hPa | 0 mm | - | 131 W/m² | - |
| 1777159262 | 29.44° C | 81% | 1004.1 hPa | 0 mm | - | 147 W/m² | - |
* Rain latest hour (hover to see other rain measurements)
** Current wind speed in m/s (hover to see current wind gust speed)